Location: Recife
(8.0585°S, 34.8848°W)
Time: 07:22:39
(UTC-03:00)

Hubble Space Telescope - Pass Details

Date: 27 September 2021
Orbit: 535 x 538 km, 28.5° (Epoch: 23 October)

Event Time Altitude Azimuth Distance (km) Brightness Sun altitude
Rises 19:22:59 0° 290° (WNW) 2,666 5.2 -32.4°
Reaches altitude 10° 19:25:17 10° 285° (WNW) 1,779 4.1 -33.0°
Enters shadow 19:26:20 17° 281° (W) 1,389 3.5 -33.3°
